Blaine, MN

11:53 PM CST on February 10, 2016 (GMT -0600)
Anoka County / Blaine Airport

Weather History for KANE - July, 2014

Change the Weather History Date:

Tuesday, July 22, 2014

  Actual Average Record
Temperature  
Mean Temperature 76 °F -  
Max Temperature 84 °F 79 °F 89 °F (2001)
Min Temperature 68 °F 61 °F 55 °F (2000)
Cooling Degree Days 12    
Growing Degree Days 26 (Base 50)    
Moisture  
Dew Point 67 °F    
Average Humidity 72    
Maximum Humidity 89    
Minimum Humidity 42    
Precipitation  
Precipitation 0.00 in - - ()
Sea Level Pressure  
Sea Level Pressure 29.94 in    
Wind  
Wind Speed 11 mph (WNW)    
Max Wind Speed 17 mph    
Max Gust Speed 26 mph    
Visibility 10 miles    
Events      
Averages and records for this station are not official NWS values.
T = Trace of Precipitation, MM = Missing Value Source: NWS Daily Summary

Daily Weather History Graph

Daily Weather History Graph

Search for Another Location

Airport or City:

Trip Planner

Search our weather history database for the weather conditions in past years. The results will help you decide how hot, cold, wet, or windy it might be!

Date:

Astronomy

Jul. 22, 2014 Rise Set
Actual Time 5:46 AM CDT 8:51 PM CDT
Civil Twilight 5:11 AM CDT 9:26 PM CDT
Nautical Twilight 4:26 AM CDT 10:11 PM CDT
Astronomical Twilight 3:31 AM CDT 11:05 PM CDT
Moon 2:22 AM CDT (7/22) 5:28 PM CDT (7/22)
Length of Visible Light 16h 14m
Length of Day
15h 04m
Waning Crescent, 16% of the Moon is Illuminated
Jul 22
Waning Crescent
Jul 26
New
Aug 3
First Quarter
Aug 10
Full
Aug 17
Last Quarter

Hourly Weather History & Observations

Time (CDT) Temp. Heat Index Dew Point Humidity Pressure Visibility Wind Dir Wind Speed Gust Speed Precip Events Conditions
12:14 AM 82.4 °F 89.5 °F 75.2 °F 79% 29.81 in 10.0 mi SSE 12.7 mph 19.6 mph N/A   Clear
12:34 AM 82.4 °F 90.9 °F 77.0 °F 84% 29.80 in 10.0 mi SSE 12.7 mph 18.4 mph N/A   Scattered Clouds
12:54 AM 82.4 °F 90.9 °F 77.0 °F 84% 29.79 in 10.0 mi SSE 12.7 mph - N/A   Scattered Clouds
1:14 AM 82.4 °F 90.9 °F 77.0 °F 84% 29.79 in 10.0 mi SSE 9.2 mph - N/A   Clear
1:34 AM 82.4 °F 90.9 °F 77.0 °F 84% 29.80 in 10.0 mi South 10.4 mph - N/A   Scattered Clouds
1:54 AM 82.4 °F 90.9 °F 77.0 °F 84% 29.79 in 10.0 mi South 9.2 mph - N/A   Scattered Clouds
2:14 AM 82.4 °F 92.4 °F 78.8 °F 89% 29.79 in 10.0 mi South 8.1 mph - N/A   Mostly Cloudy
2:34 AM 84.2 °F 96.1 °F 78.8 °F 84% 29.79 in 10.0 mi SSW 9.2 mph - N/A   Overcast
2:54 AM 82.4 °F 92.4 °F 78.8 °F 89% 29.79 in 10.0 mi SSW 8.1 mph - N/A   Overcast
3:14 AM 82.4 °F 92.4 °F 78.8 °F 89% 29.78 in 10.0 mi South 10.4 mph - N/A   Overcast
3:34 AM 82.4 °F 92.4 °F 78.8 °F 89% 29.79 in 10.0 mi SSW 9.2 mph - N/A   Mostly Cloudy
3:54 AM 82.4 °F 92.4 °F 78.8 °F 89% 29.78 in 10.0 mi SSW 6.9 mph - N/A   Scattered Clouds
4:14 AM 82.4 °F 92.4 °F 78.8 °F 89% 29.78 in 10.0 mi SW 8.1 mph - N/A   Clear
4:34 AM 82.4 °F 92.4 °F 78.8 °F 89% 29.79 in 10.0 mi SW 9.2 mph - N/A   Mostly Cloudy
4:54 AM 80.6 °F 85.4 °F 73.4 °F 79% 29.81 in 10.0 mi West 11.5 mph 18.4 mph N/A   Overcast
5:14 AM 78.8 °F - 71.6 °F 78% 29.82 in 10.0 mi West 12.7 mph - N/A   Mostly Cloudy
5:34 AM 77.0 °F - 69.8 °F 78% 29.84 in 10.0 mi West 12.7 mph - N/A   Scattered Clouds
5:54 AM 75.2 °F - 66.2 °F 73% 29.86 in 10.0 mi West 10.4 mph - N/A   Clear
6:14 AM 75.2 °F - 66.2 °F 73% 29.87 in 10.0 mi West 15.0 mph - N/A   Clear
6:34 AM 75.2 °F - 64.4 °F 69% 29.88 in 10.0 mi West 17.3 mph 23.0 mph N/A   Clear
6:54 AM 73.4 °F - 66.2 °F 78% 29.90 in 10.0 mi WNW 13.8 mph 20.7 mph N/A   Clear
7:45 AM 73.4 °F - 66.2 °F 78% 29.92 in 10.0 mi West 16.1 mph 26.5 mph N/A   Scattered Clouds
8:45 AM 75.2 °F - 66.2 °F 73% 29.94 in 10.0 mi NW 15.0 mph 21.9 mph N/A   Scattered Clouds
9:45 AM 77.0 °F - 66.2 °F 69% 29.91 in 10.0 mi NW 17.3 mph 21.9 mph N/A   Scattered Clouds
10:55 AM 75.2 °F - 66.2 °F 73% 29.99 in 10.0 mi NW 15.0 mph 19.6 mph N/A   Overcast
12:45 PM 78.8 °F - 66.2 °F 65% 30.01 in 10.0 mi NNW 9.2 mph 11.5 mph N/A   Mostly Cloudy
1:55 PM 80.6 °F 82.3 °F 64.4 °F 58% 30.02 in 10.0 mi NW 9.2 mph 11.5 mph N/A   Mostly Cloudy
2:45 PM 82.4 °F 83.4 °F 62.6 °F 51% 30.03 in 10.0 mi NW 10.4 mph - N/A   Scattered Clouds
4:45 PM 82.4 °F 82.9 °F 60.8 °F 48% 30.05 in 10.0 mi NW 9.2 mph 16.1 mph N/A   Scattered Clouds
5:45 PM 82.4 °F 82.9 °F 60.8 °F 48% 30.07 in 10.0 mi NNW 12.7 mph - N/A   Scattered Clouds
6:45 PM 80.6 °F 80.5 °F 55.4 °F 42% 30.09 in 10.0 mi NNW 16.1 mph - N/A   Clear
7:45 PM 78.8 °F - 55.4 °F 44% 30.11 in 10.0 mi NNW 8.1 mph - N/A   Clear
9:14 PM 71.6 °F - 57.2 °F 60% 30.13 in 10.0 mi North 6.9 mph - N/A   Clear
9:34 PM 71.6 °F - 57.2 °F 60% 30.13 in 10.0 mi North 8.1 mph - N/A   Clear
9:45 PM 71.6 °F - 57.2 °F 60% 30.13 in 10.0 mi NNW 8.1 mph - N/A   Clear
9:54 PM 71.6 °F - 57.2 °F 60% 30.14 in 10.0 mi NNW 6.9 mph - N/A   Clear
10:14 PM 69.8 °F - 57.2 °F 64% 30.14 in 10.0 mi NNW 5.8 mph - N/A   Clear
10:34 PM 71.6 °F - 57.2 °F 60% 30.15 in 10.0 mi NNW 6.9 mph - N/A   Clear
10:54 PM 69.8 °F - 57.2 °F 64% 30.15 in 10.0 mi NNW 5.8 mph - N/A   Clear
11:14 PM 69.8 °F - 57.2 °F 64% 30.16 in 10.0 mi NNW 5.8 mph - N/A   Clear
11:34 PM 69.8 °F - 57.2 °F 64% 30.16 in 10.0 mi NW 5.8 mph - N/A   Clear
11:54 PM 68.0 °F - 57.2 °F 68% 30.17 in 10.0 mi NW 6.9 mph - N/A   Clear